User: anonymous
Location: Lawrence Hall of Science
(37.8785°N, 122.2415°W)
Time: 13:58:22
(UTC-07:00)
Language:

Cosmos 2098 Rocket - Orbit

View from above orbital plane
View from above orbital plane
View from above satellite
View from above satellite

Ground track
Ground track

The orbit data is extracted from the following two-line orbital elements,

1 20775U 90078B   14238.11044390  .00004323  00000-0  23678-3 0  4845
2 20775 082.9377 163.3113 0636830 241.5512 211.4082 14.18597599202520
Epoch (UTC): 26 August 2014 02:39:02
Eccentricity: 0.0636830
inclination: 82.9377°
perigee height: 371 km
apogee height: 1289 km
right ascension of ascending node: 163.3113°
argument of perigee: 241.5512°
revolutions per day: 14.18597599
mean anomaly at epoch: 211.4082°
orbit number at epoch: 20252

The dashed part of the orbit path shows where the satellite is in the earth's shadow,  

DLR